Piney Island, NC

6:15 AM EDT on July 27, 2017 (GMT -0400)
Piney Island

Weather History for KNBT - January, 2014

Change the Weather History Date:

Wednesday, January 1, 2014

  Actual Average (KMRH) Record (KMRH)
Temperature  
Mean Temperature 46 °F -  
Max Temperature 53 °F 59 °F 75 °F (1985)
Min Temperature 39 °F 40 °F 20 °F (1977)
Degree Days  
Heating Degree Days 19    
Moisture  
Dew Point 38 °F    
Average Humidity 69    
Maximum Humidity 96    
Minimum Humidity 43    
Precipitation  
Precipitation 0.00 in - - ()
Sea Level Pressure  
Sea Level Pressure 30.33 in    
Wind  
Wind Speed 6 mph (NE)    
Max Wind Speed 10 mph    
Max Gust Speed -    
Averages and records for this station are not official NWS values.
T = Trace of Precipitation, MM = Missing Value Source: NWS Daily Summary

Daily Weather History Graph

Daily Weather History Graph

Search for Another Location

Airport or City:

Trip Planner

Search our weather history database for the weather conditions in past years. The results will help you decide how hot, cold, wet, or windy it might be!

Date:

Astronomy

Jan. 01, 2014 Rise Set
Actual Time 7:13 AM EST 5:05 PM EST
Civil Twilight 6:45 AM EST 5:33 PM EST
Nautical Twilight 6:14 AM EST 6:04 PM EST
Astronomical Twilight 5:43 AM EST 6:35 PM EST
Moon 7:04 AM EST (1/1) 5:44 PM EST (1/1)
Length of Visible Light 10h 47m
Length of Day
9h 51m
New Moon, 0% of the Moon is Illuminated
Jan 1
New Moon
Jan 7
First Quarter
Jan 15
Full
Jan 24
Last Quarter
Jan 30
New

Hourly Weather History & Observations

Time (EST) Temp. Windchill Dew Point Humidity Pressure Visibility Wind Dir Wind Speed Gust Speed Precip Events Conditions
12:56 AM 45.0 °F 41.8 °F 37.9 °F 76% 30.37 in - WSW 5.8 mph - N/A   Clear
1:56 AM 43.0 °F 37.7 °F 34.0 °F 71% 30.37 in - NNW 9.2 mph - N/A   Clear
2:56 AM 44.1 °F 39.5 °F 33.1 °F 65% 30.38 in - NW 8.1 mph - N/A   Clear
3:56 AM 43.0 °F 38.2 °F 33.1 °F 68% 30.39 in - NW 8.1 mph - N/A   Clear
4:56 AM 39.9 °F 36.7 °F 33.1 °F 77% 30.40 in - SSW 4.6 mph - N/A   Clear
5:56 AM 44.1 °F 41.5 °F 33.1 °F 65% 30.40 in - North 4.6 mph - N/A   Clear
6:56 AM 44.1 °F 40.1 °F 32.0 °F 63% 30.41 in - NE 6.9 mph - N/A   Clear
7:56 AM 45.0 °F 42.6 °F 35.1 °F 68% 30.43 in - NE 4.6 mph - N/A   Clear
8:56 AM 48.0 °F - 36.0 °F 63% 30.43 in - ENE 6.9 mph - N/A   Clear
9:56 AM 48.9 °F - 37.9 °F 66% 30.44 in - ENE 6.9 mph - N/A   Clear
10:56 AM 50.0 °F - 37.9 °F 63% 30.43 in - ENE 5.8 mph - N/A   Clear
11:56 AM 51.1 °F - 39.0 °F 63% 30.39 in - ENE 5.8 mph - N/A   Clear
12:56 PM 52.0 °F - 35.1 °F 53% 30.35 in - ENE 5.8 mph - N/A   Clear
1:56 PM 52.0 °F - 36.0 °F 54% 30.32 in - NE 5.8 mph - N/A   Clear
2:56 PM 53.1 °F - 30.9 °F 43% 30.32 in - NNE 6.9 mph - N/A   Partly Cloudy
3:56 PM 52.0 °F - 34.0 °F 50% 30.29 in - NE 5.8 mph - N/A   Overcast
4:56 PM 50.0 °F - 37.9 °F 63% 30.27 in - NE 5.8 mph - N/A   Mostly Cloudy
5:56 PM 48.9 °F - 41.0 °F 74% 30.27 in - NNW 6.9 mph - N/A Rain Light Rain
6:56 PM 48.9 °F - 42.1 °F 77% 30.27 in - NE 10.4 mph - N/A Rain Light Rain
7:56 PM 48.9 °F - 45.0 °F 86% 30.26 in - NE 4.6 mph - N/A   Overcast
8:56 PM 50.0 °F - 45.0 °F 83% 30.24 in - NE 5.8 mph - N/A   Overcast
9:56 PM 50.0 °F - 46.0 °F 86% 30.22 in - East 4.6 mph - N/A   Overcast
10:56 PM 51.1 °F - 48.0 °F 89% 30.18 in - East 4.6 mph - N/A Rain Light Rain
11:56 PM 50.0 °F - 48.9 °F 96% 30.17 in - Calm Calm - N/A Rain Light Rain